Location: Lann-Kergreiz
(47.7525°N, 3.3348°W)
Time: 22:51:23
(UTC+00:00)

Daily predictions for brighter satellites

Satellite Brightness Start Highest point End
(mag) Time Altitude Azimuth Time Altitude Azimuth Time Altitude Azimuth
BREEZE M DEB (TANK) 3.7 19:59:35 10° WSW 20:02:57 71° SSE 20:13:08 10° ENE
IGS 5A 4.4 20:05:30 10° SE 20:09:11 32° ENE 20:12:54 10° N
Cosmos 2221 2.8 20:06:39 10° SSW 20:10:57 76° W 20:15:18 10° N
BREEZE-M R/B 3.0 20:09:05 10° SSW 20:11:27 24° SSE 20:13:33 10° E
S3M 4.4 20:05:53 10° SSE 20:11:52 44° E 20:17:50 10° NNE
USA 186 3.1 20:11:14 10° SSW 20:13:34 29° W 20:15:46 10° NW
Cosmos 1862 4.1 20:11:08 10° NNW 20:15:04 54° W 20:18:59 10° S
FALCON 9 DEB 4.0 20:14:10 10° WNW 20:16:57 33° SW 20:19:42 10° SSE
Cosmos 1933 4.2 20:18:38 10° SSE 20:22:13 31° E 20:25:48 10° NNE
USA 305 4.4 20:18:22 10° WNW 20:22:18 35° N 20:26:15 10° ENE
FALCON 9 DEB 4.3 20:20:30 10° W 20:23:09 28° SW 20:25:48 10° SSE
USA 245 4.4 20:24:11 10° E 20:25:00 11° ENE 20:25:47 10° NE
Cosmos 1242 Rocket 3.6 20:24:39 10° SSE 20:27:42 26° E 20:30:44 10° NE
OBJECT-B 2.3 20:25:08 10° SSW 20:28:09 36° W 20:31:13 10° NNW
Cosmos 1553 Rocket 4.0 20:24:17 10° S 20:30:24 84° E 20:36:39 10° N
BREEZE M DEB (TANK) 2.8 20:23:50 10° W 20:31:03 68° N 20:33:40 10° E
Cosmos 1437 Rocket 2.7 20:27:43 10° S 20:31:33 69° E 20:35:30 10° NNE
FALCON 9 DEB 4.2 20:29:17 10° WNW 20:32:02 30° SW 20:34:36 11° SSE
Resurs 01 Rocket 1.7 20:30:14 10° SSE 20:34:39 69° ENE 20:39:05 10° N
OE (NEXTSAT) 4.3 20:33:01 10° WSW 20:36:28 65° S 20:39:54 10° E
DELTA 2 R/B (1) 4.4 20:32:36 10° WSW 20:37:34 34° S 20:41:51 13° SE
Spot 2 Rocket 4.4 20:34:12 12° SE 20:38:26 34° ENE 20:42:58 10° N
Sich 1 3.1 20:34:17 10° N 20:38:36 66° ENE 20:42:55 10° SSE
Cosmos 2082 Rocket 4.1 20:37:32 10° N 20:41:20 18° NE 20:45:06 10° E
USA 306 4.3 20:37:35 10° WNW 20:41:32 36° N 20:45:31 10° ENE
Meteor 1-20 Rocket 4.2 20:35:58 10° N 20:41:37 69° ENE 20:47:07 10° SSE
BREEZE-M DEB (TANK) 4.3 20:42:27 10° WSW 20:43:38 13° SSW 20:45:03 10° S
CZ-4C R/B 3.6 20:37:08 10° NW 20:43:45 46° NE 20:51:18 11° ESE
Cosmos 1782 3.7 20:43:16 13° SSE 20:46:17 31° E 20:49:50 10° NNE
ERS-1 Rocket 4.0 20:50:52 15° ESE 20:54:23 32° ENE 20:58:48 10° N
Cosmos 1503 Rocket 4.0 20:50:49 10° S 20:55:51 58° ESE 21:00:59 10° NNE
SPOT 5 4.0 20:52:52 15° ESE 20:56:23 33° ENE 21:01:02 10° N
Intercosmos 24 3.6 20:54:33 10° S 20:58:24 87° W 21:01:59 10° N
USA 290 2.3 20:57:34 10° NNW 21:00:50 77° WSW 21:02:58 20° SSE
Cosmos 1151 Rocket 3.3 20:58:03 13° SSE 21:01:40 48° E 21:05:54 10° NNE
CREW DRAGON DEMO-1 DEB 4.0 20:59:45 10° WNW 21:02:12 33° N 21:04:38 10° ENE
Cosmos 1602 3.7 20:59:49 10° N 21:03:40 68° E 21:06:19 19° SSE
Terra 3.1 21:02:23 16° ESE 21:05:11 27° ENE 21:09:11 10° N
USA 307 4.1 21:02:58 10° WNW 21:07:01 39° N 21:11:03 10° E
Cosmos 2278 Rocket 3.3 21:05:44 18° SE 21:08:07 24° ESE 21:12:33 10° NE
Ariane Rocket 4.4 21:04:53 10° SSW 21:09:28 34° W 21:14:05 10° NNW
Meteor 1-25 Rocket 4.5 21:05:38 10° NNW 21:11:28 75° W 21:17:01 11° S
CZ-2C R/B 3.6 21:08:03 10° NNE 21:12:32 78° ESE 21:17:04 10° S
SL-4 R/B 3.8 21:15:03 10° W 21:18:39 24° SW 21:21:08 16° S
X-37B 1.0 21:16:13 10° W 21:19:18 44° S 21:20:09 34° SE
Cosmos 1515 Rocket 4.3 21:17:35 24° SE 21:19:27 34° E 21:23:27 10° NNE
Cosmos 1844 Rocket 3.3 21:14:38 10° SW 21:20:07 58° WNW 21:25:39 10° NNE
Cosmos 2084 4.0 21:17:53 18° S 21:20:23 34° ESE 21:24:14 10° ENE
USA 308 4.0 21:16:28 10° WNW 21:20:34 42° NNE 21:24:24 11° E
SPOT 1/Viking Rocket 3.6 21:16:47 17° SSE 21:20:55 83° WSW 21:26:09 10° NNW
MetOp-B 4.4 21:18:14 13° S 21:22:57 65° WSW 21:28:18 10° NNW
ARIANE 5 R/B 2.5 21:20:40 24° SSE 21:23:16 75° ENE 21:27:36 10° N
JB-3 4.4 21:22:19 10° NNE 21:26:10 52° E 21:27:56 28° SSE
Cosmos 1437 2.6 21:25:46 45° SE 21:26:13 50° E 21:28:59 10° NNE
Cosmos 1354 Rocket 4.0 21:21:55 10° SSW 21:27:09 89° ESE 21:32:26 10° NNE
Cosmos 1633 Rocket 3.1 21:24:05 10° NNW 21:28:29 77° W 21:31:23 21° S
Cosmos 1812 3.1 21:31:31 33° SE 21:32:46 45° E 21:36:29 10° NNE
Cosmos 1470 Rocket 3.5 21:33:14 10° N 21:37:45 79° E 21:39:57 30° SSE
Cosmos 2184 Rocket 4.3 21:31:56 10° N 21:38:02 51° ENE 21:41:19 26° SE
Meteor 1-5 Rocket 4.1 21:33:49 10° N 21:39:14 66° ENE 21:42:00 29° SSE
Cosmos 1709 Rocket 4.3 21:33:21 10° NNW 21:39:24 64° W 21:44:27 15° S
Cosmos 1328 Rocket 3.6 21:36:50 18° S 21:40:08 85° W 21:44:36 10° N
NOSS 3-4 (A) 4.3 21:34:56 10° NW 21:41:35 52° NE 21:47:02 19° ESE
NOSS 3-4 (C) 4.3 21:35:02 10° NW 21:41:41 52° NE 21:47:08 19° ESE
ATLAS 5 CENTAUR R/B 2.8 21:37:55 10° NW 21:43:26 55° SW 21:47:13 24° S
Cosmos 2074 Rocket 4.2 21:39:47 10° N 21:46:03 61° ENE 21:49:23 28° SSE
CARTOSAT-1 3.7 21:44:08 28° S 21:46:22 71° WSW 21:50:40 10° NNW
NOSS 3-3 (A) 3.8 21:45:28 10° SSW 21:51:13 79° SE 21:57:49 10° NE
NOSS 3-3 (C) 3.8 21:45:34 10° SSW 21:51:19 79° SE 21:57:56 10° NE
Cosmos 1666 2.7 21:47:40 10° N 21:51:23 61° ENE 21:52:11 47° SE
Cosmos 1933 Rocket 3.5 21:47:57 10° N 21:52:18 73° E 21:53:49 39° SSE
Cosmos 1833 Rocket 2.7 21:47:18 10° NNW 21:52:59 80° ENE 21:55:42 32° SE
ATLAS 2AS CENTAUR R/B 3.7 21:47:56 10° NW 21:55:04 43° NE 22:00:32 15° E
Cosmos 2315 Rocket 4.5 21:50:10 10° SSW 21:56:28 63° WNW 22:02:50 10° N
BREEZE-M DEB (TANK) 1.8 21:56:18 10° WNW 21:57:57 52° NW 21:57:57 52° NW
BREEZE-M DEB (TANK) 4.1 21:50:41 10° WSW 22:01:04 60° NNW 22:04:08 10° ENE
Cosmos 1538 Rocket 4.0 21:56:18 10° NNW 22:01:43 83° ENE 22:03:56 37° SSE
USA 305 3.3 21:58:34 10° WNW 22:02:48 61° NNE 22:04:40 31° E
USA 215 4.2 21:57:04 10° E 22:03:12 45° NNE 22:09:21 10° NW
Iridium 4 Rocket 3.7 22:01:48 29° S 22:04:50 83° E 22:10:47 10° N
Resurs 01 Rocket 4.2 22:09:14 10° WSW 22:11:37 14° W 22:14:00 10° NW
Cosmos 158 Rocket 3.9 22:09:07 10° NNW 22:13:59 65° ENE 22:15:27 43° SE
SJ 16-02 1.3 22:15:15 50° SSE 22:16:12 67° ESE 22:20:37 10° NNE
Cosmos 2228 Rocket 3.1 22:17:34 51° SE 22:18:19 60° E 22:22:43 10° NNE
Cosmos 1680 Rocket 4.2 22:14:27 10° NNW 22:19:34 44° ENE 22:21:27 32° ESE
Meteor 1-27 Rocket 4.0 22:18:37 39° SSE 22:20:33 56° E 22:26:19 10° NNE
USA 306 3.0 22:17:41 10° WNW 22:21:58 74° NNE 22:23:05 47° E
COSMOS 2406 3.4 22:18:04 10° NNW 22:23:40 62° WSW 22:25:47 37° S
Cosmos 2082 Rocket 2.2 22:20:45 10° NNW 22:26:24 77° ENE 22:28:19 43° SE
Meteor 2-6 Rocket 4.4 22:23:24 24° SSW 22:26:38 66° WNW 22:32:09 10° N
deb Kosmos-1763 4.2 22:25:34 10° NNW 22:29:04 57° WSW 22:29:05 57° WSW
CZ-4C R/B 3.2 22:25:34 10° NW 22:32:44 62° WSW 22:36:28 34° S
H-2A R/B 3.8 22:28:45 10° N 22:32:55 63° WNW 22:34:17 39° SW
SL-24 DEB 4.2 22:31:53 50° SSW 22:33:04 77° W 22:37:41 10° N
ERS-1 Rocket 4.0 22:30:51 25° SW 22:33:06 38° W 22:37:46 10° NNW
BREEZE-M R/B 3.9 22:30:49 10° W 22:31:52 23° WNW 22:31:52 23° WNW
SPOT 5 4.0 22:32:05 25° SW 22:34:21 38° W 22:39:14 10° NNW
Cosmos 1271 Rocket 3.0 22:35:28 51° SW 22:36:14 66° WNW 22:40:15 10° N
Terra 2.7 22:41:15 32° SW 22:42:46 41° W 22:47:17 10° NNW
Meteor 1-11 Rocket 3.9 22:37:06 10° NNW 22:43:04 71° W 22:45:14 40° S
Cosmos 1295 Rocket 4.5 22:37:03 10° N 22:43:26 88° E 22:45:45 43° S
USA 307 2.7 22:43:01 10° WNW 22:47:19 85° SW 22:47:31 80° SSE
Cosmos 1340 Rocket 2.8 22:45:32 10° N 22:49:37 69° ENE 22:49:40 69° E
Cosmos 2278 Rocket 2.6 22:47:29 17° SW 22:51:46 60° WNW 22:57:23 10° NNE
Spot 4 4.0 22:53:27 52° ESE 22:54:18 62° ENE 22:59:07 10° N
Cosmos 923 Rocket 3.9 22:49:31 10° NNW 22:54:48 80° WSW 22:55:53 57° S
Cosmos 1544 3.3 22:51:59 10° N 22:55:12 68° NNW 22:55:12 68° NNW
Cosmos 1862 Rocket 4.5 22:57:00 34° E 22:57:00 34° E 23:00:35 10° NNE
Cosmos 1898 Rocket 3.6 22:57:39 52° SE 22:58:06 54° ESE 23:03:18 10° NNE
Cosmos 1536 3.1 22:55:23 10° NNW 22:59:23 57° W 22:59:30 56° WSW
Cosmos 1869 Rocket 4.0 22:56:22 10° NNW 23:00:34 50° W 23:01:03 47° WSW
USA 308 2.9 22:56:30 10° WNW 23:00:30 68° WSW 23:00:30 68° WSW
Cosmos 2369 Rocket 3.7 23:03:27 20° E 23:03:27 20° E 23:07:03 10° NE
SL-8 Rocket 4.1 23:03:26 10° N 23:09:47 70° ENE 23:11:34 48° SE
Cosmos 1943 Rocket 2.6 23:11:55 43° ESE 23:12:03 43° ESE 23:17:20 10° NE
Cosmos 2084 Rocket 4.4 23:08:20 10° NNW 23:12:24 43° NE 23:13:20 38° ENE
Cosmos 1975 3.8 23:08:43 10° N 23:12:12 36° ENE 23:12:12 36° ENE
ALOS 2 2.9 23:16:05 55° E 23:16:17 55° ENE 23:20:36 10° N
Cosmos 44 3.5 23:14:16 10° NW 23:19:44 77° NE 23:20:48 57° ESE
Cosmos 1707 Rocket 3.5 23:20:01 71° WSW 23:20:12 73° W 23:24:37 10° N
Cosmos 990 Rocket 3.9 23:20:01 57° SW 23:21:07 82° WNW 23:26:25 10° NNE
Okean 1-7 4.5 23:30:15 26° ENE 23:30:15 26° ENE 23:33:20 10° NNE
Cosmos 1743 3.7 23:28:42 10° NNW 23:31:55 41° WNW 23:31:55 41° WNW
NOSS 3-4 (A) 4.3 23:25:54 10° NW 23:32:37 48° WSW 23:34:28 41° SSW
NOSS 3-4 (C) 4.2 23:26:00 10° NW 23:32:43 49° WSW 23:34:35 41° SSW
Cosmos 2112 Rocket 4.2 23:28:19 10° NNW 23:33:35 58° WSW 23:34:10 55° SW
Meteor 1-18 Rocket 4.2 23:33:04 60° SSE 23:33:55 70° E 23:39:30 10° NNE
Cosmos 1238 Rocket 3.8 23:29:02 10° NNW 23:35:26 75° W 23:36:39 57° SSW
SL-24 R/B - RUBIN 2 3.7 23:31:37 10° NW 23:37:09 79° SW 23:37:29 74° S
Cosmos 864 Rocket 4.4 23:32:20 10° N 23:38:33 88° E 23:39:57 57° SSE
SeaSat 1 3.5 23:34:28 10° NE 23:38:19 32° E 23:38:19 32° E
Cosmos 2242 Rocket 4.5 23:40:22 37° E 23:40:22 37° E 23:44:08 10° NNE
Cosmos 1959 Rocket 4.4 23:35:08 10° N 23:41:25 86° W 23:42:51 56° S
USA 215 3.2 23:42:21 30° ESE 23:45:50 84° NE 23:52:25 10° NW
ATLAS 2AS CENTAUR R/B 2.8 23:39:09 10° NW 23:46:24 62° WSW 23:47:56 50° S
Cosmos 2297 3.7 23:45:51 55° SW 23:47:11 81° WNW 23:52:54 10° NNE
Cosmos 1733 Rocket 3.8 23:49:14 10° NNW 23:53:07 42° W 23:53:07 42° W
Cosmos 2181 Rocket 4.0 23:52:11 50° SW 23:53:49 71° W 23:59:58 10° N
SJ 16-02 3.9 23:52:19 10° W 23:55:15 17° NW 23:58:13 10° N
